Flag for U.S.A. Weather past 2 weeks in Waterbury, Connecticut, U.S.A.

Now
73 °F

Passing clouds.


Feels Like: 76 °F
Forecast: 62 / 82 °F
Wind: 8 mph from Southwest

Location: Oxford

Current Time: Jul 31, 2014 at 8:27:57 PM

Latest Report: Jul 31, 2014 at 6:50 PM


Visibility: 10 mi

Pressure: 30.14 "Hg

Humidity: 65%

Dew point: 61 °F

Location of WaterburyLocation

Historic Weather in Waterbury — Graph

°F

Waterbury temperature yesterday

Maximum temperature yesterday: 75 °F (at 4:52 PM)
Minimum temperature yesterday: 55 °F (at 4:35 AM)
Average temperature yesterday: 63 °F

Past Weeks' High & Low Weather Summary

 TemperatureHumidityPressure
High84 °F (Jul 23, 12:45 PM)88% (Jul 16, 10:55 PM)30.30 "Hg (Jul 16, 10:55 PM)
Low55 °F (Jul 18, 4:55 AM)41% (Jul 30, 4:52 PM)29.53 "Hg (Jul 28, 2:45 PM)
Average66 °F74%30.01 "Hg
* Reported Jul 16 6:55 PM — Jul 31 6:50 PM, Waterbury, Weather by CustomWeather, © 2014

Note: Actual official high and low records may vary slightly from our data, if they occured in-between our weather recording intervals... More about our weather records

Advertising

Waterbury weather history for previous 24 hours

 ConditionsComfort  
Time TempWeatherWind HumidityBarometerVisibility
6:50 PM
Jul 31
73 °FPassing clouds.8 mph65%30.14 "Hg10 mi
5:50 PM75 °FScattered clouds.8 mph61%30.13 "Hg10 mi
4:45 PM79 °FScattered clouds.7 mph54%30.12 "Hg10 mi
3:45 PM77 °FScattered clouds.8 mph54%30.12 "Hg10 mi
2:45 PM77 °FScattered clouds.8 mph54%30.12 "Hg10 mi
12:45 PM75 °FScattered clouds.8 mph57%30.13 "Hg10 mi
11:45 AM75 °FScattered clouds.12 mph57%30.13 "Hg10 mi
10:45 AM72 °FPartly sunny.6 mph61%30.14 "Hg10 mi
9:45 AM72 °FPartly sunny.6 mph65%30.13 "Hg10 mi
8:45 AM68 °FScattered clouds.6 mph64%30.14 "Hg10 mi
7:45 AM64 °FPartly sunny.No wind73%30.13 "Hg10 mi
6:45 AM57 °FPassing clouds.No wind88%30.12 "Hg10 mi
5:45 AM55 °FPassing clouds.No wind88%30.10 "Hg10 mi
5:35 AM57 °FClear.No wind82%30.10 "Hg10 mi
5:15 AM57 °FClear.No wind88%30.10 "Hg10 mi
4:55 AM57 °FClear.No wind82%30.09 "Hg10 mi
4:35 AM55 °FClear.No wind88%30.09 "Hg10 mi
4:15 AM57 °FClear.No wind88%30.08 "Hg10 mi
3:55 AM55 °FClear.No wind88%30.08 "Hg10 mi
3:35 AM57 °FClear.No wind82%30.09 "Hg10 mi
3:15 AM57 °FClear.No wind88%30.08 "Hg10 mi
2:55 AM57 °FClear.No wind82%30.08 "Hg10 mi
2:35 AM57 °FClear.No wind82%30.08 "Hg10 mi
2:15 AM57 °FClear.No wind82%30.08 "Hg10 mi
1:55 AM57 °FClear.No wind88%30.08 "Hg10 mi
1:35 AM59 °FClear.No wind82%30.08 "Hg10 mi
1:15 AM59 °FClear.No wind82%30.08 "Hg10 mi
12:55 AM59 °FClear.No wind77%30.08 "Hg10 mi
12:35 AM57 °FClear.No wind82%30.08 "Hg10 mi
12:15 AM59 °FClear.No wind77%30.08 "Hg10 mi
11:55 PM
Jul 30
59 °FClear.No wind77%30.08 "Hg10 mi
11:35 PM63 °FClear.No wind73%30.08 "Hg10 mi
11:15 PM61 °FClear.No wind77%30.08 "Hg10 mi
10:55 PM63 °FClear.No wind73%30.08 "Hg10 mi
10:35 PM63 °FClear.No wind73%30.08 "Hg10 mi
10:15 PM64 °FClear.3 mph64%30.08 "Hg10 mi
9:55 PM64 °FClear.3 mph64%30.08 "Hg10 mi
9:35 PM64 °FClear.No wind64%30.07 "Hg10 mi
9:15 PM64 °FClear.No wind64%30.07 "Hg10 mi
8:52 PM64 °FSunny.No wind68%30.06 "Hg10 mi
Weather by CustomWeather, © 2014

See weather overviewHow to use our weather pages